STARLINK-31846, 60126

Orbit data source: Space-Track

STARLINK-31846, 60126 is a payload satellite owned by SpaceX/Seattle (US) in LEO that was launched on Mon, 24 Jun 2024 UTC via an FALCON 9 launch vehicle from the Air Force Western Test Range (AFWTR). Payload-class satellites include a variety of spacecraft equipped with specific instruments for various scientific and technological missions. These include communications satellites like Starlink; space stations such as the ISS; scientific satellites like the Hubble; Earth observation satellites from companies like Planet Labs, Umbra, and HawkEye 360; GPS; miniature CubeSats for education and research; and military/defense satellites.

Loading next visibility...
Identifier
60126, 2024-118P
Orbit
LEO
Country
Flag of USUS
Related business
Manufacturer
SpaceX/Seattle
Mission
Operational Commercial Communications
Bus & Motor
STARLINK V2M, Unknown motor
Mass
730 kg wet, ~700 kg dry
Launch date (UTC)
2024-06-24 (1 year ago)
Launch vehicle
FALCON 9
Launch site
Air Force Western Test Range (AFWTR)
Object type
Payload
Rocket body
Debris
Shape & HBR
Box + 2 Pan, 17.7 m
Radar Cross Section
33.884 m², Large (>1 m²)

Expand to show TLE details & history
Last TLE update: 6 hours ago

TLE from 6 hours ago
0 STARLINK-31846
1 60126U 24118P   25354.83409324 -.00000414  00000-0 -18351-5 0  9997
2 60126  53.1617  32.9680 0001351  90.6280 269.4875 15.30193755 83622
Epoch: 2025-12-20T20:01Z
TLE epoch observation values (Epoch: 2025-12-20T20:01:05.655Z)
Latitude
-0.00009°
Longitude
3.03916°
Altitude
476.142 km
Speed
7.629 km/s
True Right ascension
02h 11m 52s
True Declination
0° 00' 00"
Sunlit
Object was in full shadow at epoch
Visualization orbit readout
Latitude
Unknown
Longitude
Unknown
Altitude
Unknown
Speed
Unknown
Apparent Right ascension
Unknown
Apparent Declination
Unknown
Sunlit
N/A
Visualization observer readout
Local Sidereal Time
00:30:15
Azimuth
Unknown
Elevation
Unknown
Doppler factor
Unknown
Orbital elements
Apogee altitude
476.416 km
Perigee altitude
474.564 km
Semi-major axis
6,853.627 km
Eccentricity
0.00014
Inclination
53.1617°
RAAN
32.968°
Arg. of periapsis
90.628°
True anomaly
269.47202°
Mean anomaly
269.4875°
Eccentric anomaly
269.47976°
Mean motion
3.82527 °/min
Orbital period
94.11 mins
BSTAR
-0.0000018351
Loading maneuver chart data...
Computing Atmospheric mass density...
Loading historical data...
Loading historical data...
Loading historical data...
Loading historical data...
Loading historical data...
Loading historical data...
Loading historical data...

Documentation

Showing up to 5 results
|